Weather History for Cushing, OK

Change the Weather History Date:

Tuesday, February 26, 2013

  Actual Average Record
Temperature  
Mean Temperature 35 °F -  
Max Temperature 42 °F 57 °F 80 °F (2009)
Min Temperature 28 °F 33 °F 11 °F (1960)
Degree Days  
Heating Degree Days 30    
Moisture  
Dew Point 33 °F    
Average Humidity 92    
Maximum Humidity 100    
Minimum Humidity 76    
Precipitation  
Precipitation 0.03 in - - ()
Sea Level Pressure  
Sea Level Pressure 29.76 in    
Wind  
Wind Speed 15 mph (NW)    
Max Wind Speed 23 mph    
Max Gust Speed 30 mph    
Visibility 9 miles    
Events Rain , Snow    
Averages and records for this station are not official NWS values.
T = Trace of Precipitation, MM = Missing Value Source: NWS Daily Summary

Daily Weather History Graph

Daily Weather History Graph

Search for Another Location

Airport:

Trip Planner

Search our weather history database for the weather conditions in past years. The results will help you decide how hot, cold, wet, or windy it might be!

Date:

Astronomy

Feb. 26, 2013 Rise Set
Actual Time 7:00 AM CST 6:19 PM CST
Civil Twilight 6:34 AM CST 6:45 PM CST
Nautical Twilight 6:05 AM CST 7:15 PM CST
Astronomical Twilight 5:35 AM CST 7:44 PM CST
Moon 7:33 PM CST (2/26) 7:07 AM CST (2/26)
Length of Visible Light 12h 10m
Length of Day
11h 18m
Full, 99% of the Moon is Illuminated
Feb 26
Full
Mar 4
Last Quarter
Mar 11
New
Mar 19
First Quarter
Mar 27
Full

Hourly Weather History & Observations

Time (CST) Temp. Windchill Dew Point Humidity Pressure Visibility Wind Dir Wind Speed Gust Speed Precip Events Conditions
12:15 AM 32.0 °F 21.6 °F 32.0 °F 100% 29.56 in 5.0 mi NNW 15.0 mph 21.9 mph N/A Snow Light Snow
12:35 AM 32.0 °F 20.8 °F 32.0 °F 100% 29.57 in 7.0 mi NNW 17.3 mph 23.0 mph 0.01 in   Overcast
12:55 AM 32.0 °F 20.5 °F 32.0 °F 100% 29.57 in 3.0 mi NNW 18.4 mph 25.3 mph 0.01 in Snow Light Snow
1:15 AM 32.0 °F 20.8 °F 32.0 °F 100% 29.58 in 5.0 mi North 17.3 mph 23.0 mph 0.01 in Snow Light Snow
1:35 AM 32.0 °F 20.1 °F 32.0 °F 100% 29.58 in 7.0 mi NNW 19.6 mph 25.3 mph 0.01 in Rain Light Rain
1:55 AM 32.0 °F 20.8 °F 32.0 °F 100% 29.58 in 10.0 mi NNW 17.3 mph 24.2 mph 0.01 in   Overcast
2:15 AM 32.0 °F 20.1 °F 32.0 °F 100% 29.59 in 10.0 mi NNW 19.6 mph 25.3 mph N/A   Overcast
2:35 AM 32.0 °F 20.8 °F 32.0 °F 100% 29.59 in 10.0 mi NNW 17.3 mph 25.3 mph N/A   Light Drizzle
2:55 AM 32.0 °F 20.1 °F 32.0 °F 100% 29.60 in 10.0 mi NNW 19.6 mph 26.5 mph N/A   Light Drizzle
3:15 AM 32.0 °F 20.8 °F 32.0 °F 100% 29.60 in 7.0 mi NNW 17.3 mph 25.3 mph N/A   Overcast
3:35 AM 32.0 °F 20.1 °F 32.0 °F 100% 29.61 in 10.0 mi NNW 19.6 mph 27.6 mph N/A   Overcast
3:55 AM 32.0 °F 20.5 °F 32.0 °F 100% 29.61 in 10.0 mi NNW 18.4 mph 26.5 mph N/A   Overcast
4:15 AM 32.0 °F 20.1 °F 32.0 °F 100% 29.61 in 7.0 mi NNW 19.6 mph 27.6 mph N/A   Mostly Cloudy
4:35 AM 32.0 °F 20.8 °F 32.0 °F 100% 29.62 in 7.0 mi NNW 17.3 mph 24.2 mph N/A   Mostly Cloudy
4:55 AM 32.0 °F 20.5 °F 32.0 °F 100% 29.62 in 7.0 mi NNW 18.4 mph 23.0 mph N/A   Overcast
5:15 AM 32.0 °F 21.6 °F 32.0 °F 100% 29.63 in 10.0 mi NNW 15.0 mph - N/A   Overcast
5:35 AM 33.8 °F 22.5 °F 33.8 °F 100% 29.63 in 7.0 mi NNW 19.6 mph 26.5 mph N/A   Overcast
5:55 AM 33.8 °F 23.5 °F 33.8 °F 100% 29.64 in 7.0 mi NNW 16.1 mph 24.2 mph N/A Rain Light Rain
6:15 AM 32.0 °F 22.1 °F 32.0 °F 100% 29.65 in 5.0 mi NNW 13.8 mph 24.2 mph N/A Rain Light Rain
6:35 AM 32.0 °F 21.2 °F 32.0 °F 100% 29.65 in 5.0 mi NNW 16.1 mph 21.9 mph N/A Rain Light Rain
6:55 AM 32.0 °F 21.6 °F 32.0 °F 100% 29.66 in 4.0 mi NNW 15.0 mph 21.9 mph 0.01 in Snow Light Snow
7:15 AM 32.0 °F 20.8 °F 32.0 °F 100% 29.66 in 5.0 mi NNW 17.3 mph - N/A Rain Light Rain
7:35 AM 32.0 °F 21.6 °F 32.0 °F 100% 29.68 in 10.0 mi NW 15.0 mph - N/A   Mostly Cloudy
7:55 AM 33.8 °F 25.8 °F 33.8 °F 100% 29.69 in 10.0 mi NW 10.4 mph 18.4 mph N/A   Scattered Clouds
8:35 AM 33.8 °F 24.3 °F 33.8 °F 100% 29.73 in 10.0 mi NW 13.8 mph - N/A   Scattered Clouds
8:55 AM 33.8 °F 23.9 °F 33.8 °F 100% 29.74 in 10.0 mi WNW 15.0 mph 23.0 mph N/A   Clear
9:15 AM 33.8 °F 22.2 °F 33.8 °F 100% 29.75 in 10.0 mi WNW 20.7 mph 26.5 mph N/A   Mostly Cloudy
9:35 AM 33.8 °F 23.2 °F 33.8 °F 100% 29.75 in 10.0 mi NW 17.3 mph 21.9 mph N/A   Mostly Cloudy
9:55 AM 35.6 °F 25.2 °F 33.8 °F 93% 29.76 in 10.0 mi NW 18.4 mph 24.2 mph N/A   Mostly Cloudy
10:15 AM 35.6 °F 24.5 °F 33.8 °F 93% 29.76 in 10.0 mi NNW 20.7 mph 25.3 mph N/A   Scattered Clouds
10:35 AM 35.6 °F 24.0 °F 33.8 °F 93% 29.76 in 10.0 mi NNW 23.0 mph 29.9 mph N/A   Clear
10:55 AM 37.4 °F 26.9 °F 33.8 °F 87% 29.78 in 10.0 mi NW 20.7 mph 28.8 mph N/A   Scattered Clouds
11:15 AM 37.4 °F 27.8 °F 33.8 °F 87% 29.79 in 10.0 mi NW 17.3 mph 23.0 mph N/A   Scattered Clouds
11:35 AM 37.4 °F 26.9 °F 33.8 °F 87% 29.79 in 10.0 mi NNW 20.7 mph - N/A   Clear
11:55 AM 39.2 °F 30.5 °F 33.8 °F 81% 29.79 in 10.0 mi NW 16.1 mph 21.9 mph N/A   Clear
12:15 PM 39.2 °F 30.2 °F 33.8 °F 81% 29.80 in 10.0 mi NW 17.3 mph 21.9 mph N/A   Clear
12:35 PM 41.0 °F 32.5 °F 33.8 °F 76% 29.78 in 10.0 mi NNW 17.3 mph 24.2 mph N/A   Clear
12:55 PM 41.0 °F 33.5 °F 33.8 °F 76% 29.78 in 10.0 mi NNW 13.8 mph 21.9 mph N/A   Clear
1:15 PM 41.0 °F 33.5 °F 35.6 °F 81% 29.78 in 10.0 mi NW 13.8 mph 20.7 mph N/A   Scattered Clouds
1:35 PM 42.8 °F 35.1 °F 35.6 °F 76% 29.79 in 10.0 mi NW 16.1 mph 23.0 mph N/A   Scattered Clouds
1:55 PM 42.8 °F 36.6 °F 35.6 °F 76% 29.79 in 10.0 mi NW 11.5 mph 19.6 mph N/A   Scattered Clouds
2:15 PM 42.8 °F 36.6 °F 35.6 °F 76% 29.79 in 10.0 mi NNW 11.5 mph 19.6 mph N/A   Scattered Clouds
2:35 PM 42.8 °F 36.2 °F 35.6 °F 76% 29.78 in 10.0 mi NNW 12.7 mph 18.4 mph N/A   Scattered Clouds
2:55 PM 42.8 °F 36.6 °F 35.6 °F 76% 29.79 in 10.0 mi NNW 11.5 mph - N/A   Clear
3:15 PM 42.8 °F 37.0 °F 35.6 °F 76% 29.80 in 10.0 mi NW 10.4 mph 17.3 mph N/A   Scattered Clouds
3:35 PM 42.8 °F 37.0 °F 35.6 °F 76% 29.80 in 10.0 mi NNW 10.4 mph - N/A   Clear
3:55 PM 42.8 °F 37.0 °F 35.6 °F 76% 29.80 in 10.0 mi NW 10.4 mph - N/A   Scattered Clouds
4:15 PM 42.8 °F 36.2 °F 35.6 °F 76% 29.80 in 10.0 mi NNW 12.7 mph - N/A   Clear
4:35 PM 42.8 °F 37.0 °F 35.6 °F 76% 29.80 in 10.0 mi NW 10.4 mph - N/A   Clear
4:55 PM 42.8 °F 38.6 °F 35.6 °F 76% 29.81 in 10.0 mi NNW 6.9 mph - N/A   Clear
5:15 PM 41.0 °F 35.2 °F 35.6 °F 81% 29.82 in 10.0 mi NW 9.2 mph - N/A   Clear
5:35 PM 41.0 °F 36.4 °F 33.8 °F 76% 29.82 in 10.0 mi NW 6.9 mph - N/A   Clear
5:55 PM 41.0 °F 35.2 °F 33.8 °F 76% 29.83 in 10.0 mi NW 9.2 mph - N/A   Clear
6:15 PM 37.4 °F 33.8 °F 33.8 °F 87% 29.83 in 10.0 mi NW 4.6 mph - N/A   Clear
6:35 PM 37.4 °F 33.8 °F 33.8 °F 87% 29.85 in 10.0 mi NW 4.6 mph - N/A   Clear
6:55 PM 35.6 °F 30.7 °F 33.8 °F 93% 29.86 in 10.0 mi WNW 5.8 mph - N/A   Mostly Cloudy
7:15 PM 35.6 °F 30.7 °F 33.8 °F 93% 29.88 in 10.0 mi WNW 5.8 mph - N/A   Scattered Clouds
7:35 PM 35.6 °F 29.9 °F 32.0 °F 87% 29.90 in 10.0 mi WNW 6.9 mph - N/A   Clear
7:55 PM 33.8 °F 27.0 °F 32.0 °F 93% 29.91 in 10.0 mi NW 8.1 mph - N/A   Clear
8:15 PM 33.8 °F 27.0 °F 32.0 °F 93% 29.91 in 10.0 mi NW 8.1 mph - N/A   Clear
8:35 PM 33.8 °F 28.6 °F 32.0 °F 93% 29.91 in 10.0 mi NW 5.8 mph - N/A   Clear
8:55 PM 32.0 °F 28.7 °F 32.0 °F 100% 29.93 in 10.0 mi NW 3.5 mph - N/A   Clear
9:15 PM 32.0 °F - 32.0 °F 100% 29.91 in 10.0 mi Calm Calm - N/A   Clear
9:35 PM 32.0 °F - 30.2 °F 93% 29.89 in 10.0 mi Calm Calm - N/A   Clear
9:55 PM 30.2 °F - 30.2 °F 100% 29.91 in 10.0 mi Calm Calm - N/A   Clear
10:15 PM 30.2 °F - 28.4 °F 93% 29.92 in 10.0 mi Calm Calm - N/A   Clear
10:35 PM 28.4 °F - 28.4 °F 100% 29.93 in 10.0 mi Calm Calm - N/A   Clear
10:55 PM 28.4 °F - 28.4 °F 100% 29.92 in 10.0 mi Calm Calm - N/A   Clear
11:15 PM 28.4 °F 24.6 °F 28.4 °F 100% 29.93 in 10.0 mi WNW 3.5 mph - N/A   Clear
11:35 PM 30.2 °F 26.7 °F 30.2 °F 100% 29.93 in 10.0 mi WNW 3.5 mph - N/A   Clear
11:55 PM 30.2 °F - 30.2 °F 100% 29.93 in 10.0 mi Calm Calm - N/A   Clear